CST,Max TemperatureF,Mean TemperatureF,Min TemperatureF,Max Dew PointF,MeanDew PointF,Min DewpointF,Max Humidity, Mean Humidity, Min Humidity, Max Sea Level PressureIn, Mean Sea Level PressureIn, Min Sea Level PressureIn, Max VisibilityMiles, Mean VisibilityMiles, Min VisibilityMiles, Max Wind SpeedMPH, Mean Wind SpeedMPH, Max Gust SpeedMPH,PrecipitationIn, CloudCover, Events, WindDirDegrees
2012-11-1,44,35,26,37,26,19,93,63,37,30.06,30.00,29.93,10,10,10,16,8,24,0.00,3,,346
2012-11-2,37,30,24,28,25,18,93,78,65,30.16,30.12,30.07,10,10,10,9,4,,0.00,3,,53
2012-11-3,39,36,32,36,30,27,93,80,70,30.22,30.19,30.15,10,10,7,6,1,,0.00,8,Snow,80
2012-11-4,42,38,35,36,34,30,93,85,70,30.21,30.17,30.13,10,10,5,10,4,,0.00,8,,84
2012-11-5,39,36,33,39,37,34,100,100,93,30.18,30.10,29.92,7,4,1,9,6,,0.00,8,Rain,109
2012-11-6,42,38,35,39,37,36,100,93,76,30.00,29.85,29.76,10,8,2,18,10,30,0.00,8,Rain,294
2012-11-7,50,42,35,43,36,32,100,86,54,30.11,30.05,30.01,10,10,10,10,5,,0.00,4,,232
2012-11-8,55,44,33,43,35,30,100,81,44,30.03,29.95,29.89,10,10,7,13,7,20,0.00,0,,151
2012-11-9,51,42,33,41,37,34,100,86,66,30.03,29.97,29.87,10,9,5,18,11,25,0.00,2,,61
2012-11-10,64,53,42,63,48,39,100,94,77,29.87,29.60,29.46,10,4,1,20,13,25,0.00,6,Rain-Thunderstorm,113
2012-11-11,48,32,17,48,23,10,100,85,73,29.93,29.78,29.52,10,10,2,21,14,29,0.00,8,Snow,280
2012-11-12,24,20,15,18,16,12,100,85,69,30.28,30.06,29.91,10,10,2,20,11,28,0.00,4,Snow,272
2012-11-13,44,28,12,39,24,12,100,88,75,30.31,30.27,30.23,10,10,10,6,1,,0.00,2,,169
2012-11-14,48,36,26,39,30,25,100,88,71,30.24,30.23,30.22,10,10,7,5,0,,0.00,3,,174
2012-11-15,46,35,24,34,23,16,100,67,46,30.47,30.33,30.13,10,10,4,15,7,21,0.00,0,,316
2012-11-16,42,32,21,28,18,12,80,58,29,30.49,30.39,30.26,10,10,10,10,4,17,0.00,0,,140
2012-11-17,55,46,37,37,34,28,87,64,47,30.26,30.18,30.12,10,10,10,14,7,21,0.00,2,,159
2012-11-18,57,50,42,36,34,32,66,56,44,30.13,30.06,30.02,10,10,10,12,8,18,0.00,1,,154
2012-11-19,57,47,37,39,38,36,100,66,51,30.10,30.03,30.00,10,10,7,8,5,,0.00,1,,206
2012-11-20,51,38,26,43,34,27,100,80,54,30.19,30.11,29.97,10,7,0,9,4,,0.00,2,Fog,187
2012-11-21,60,50,39,43,38,30,87,64,42,29.97,29.84,29.64,10,10,7,8,4,,0.00,0,,167
2012-11-22,53,38,23,43,34,18,100,81,66,30.05,29.78,29.58,10,10,7,28,10,38,0.00,4,Snow,283
2012-11-23,24,18,12,18,14,10,93,81,69,30.39,30.29,30.06,10,10,7,26,18,43,0.00,4,Snow,310
2012-11-24,32,19,8,23,15,7,100,82,64,30.35,30.05,29.78,10,10,10,15,4,16,0.00,4,,152
2012-11-25,30,26,21,27,22,10,93,80,63,30.19,29.98,29.80,10,10,10,18,10,29,0.00,7,,314
2012-11-26,21,14,6,10,7,3,85,72,58,30.43,30.34,30.20,10,10,10,18,9,23,0.00,1,,310
2012-11-27,39,26,14,25,18,9,93,74,56,30.29,30.17,30.06,10,10,10,13,4,18,0.00,1,,250
2012-11-28,35,30,26,27,25,21,86,77,70,30.32,30.21,30.05,10,10,10,12,6,17,0.00,3,,216
2012-11-29,37,29,21,28,26,21,100,84,65,30.09,30.06,30.02,10,9,5,16,5,21,0.00,0,,61
2012-11-30,35,30,24,34,30,25,100,93,87,30.16,30.09,30.00,10,6,2,15,8,20,0.00,6,,94